Regional Weather Roundup
Issued by NWS

Home | Current Version | Previous Version | Graphics & Text | Print | Product List | Glossary On
Versions: 1 2 3 4 5 6 7 8 9 10 11 12 13 14 15 16 17 18 19 20 21 22 23 24 25 26 27 28 29 30 31 32 33 34 35 36 37 38 39 40 41 42 43 44 45 46 47 48 49 50
000
ASUS43 KIND 281509
RWRIN

WEATHER ROUNDUP FOR INDIANA
NATIONAL WEATHER SERVICE INDIANAPOLIS IN
1100 AM EDT FRI AUG 28 2015

NOTE: "FAIR" INDICATES FEW OR NO CLOUDS BELOW 12,000 FEET WITH NO
SIGNIFICANT WEATHER AND/OR OBSTRUCTIONS TO VISIBILITY.

* - STATION DOES NOT REPORT WEATHER SUCH AS PRECIPITATION OR FOG.

+ - STATION NOT QUALITY CONTROLLED BY THE NATIONAL WEATHER SERVICE.
    USE DATA WITH CAUTION...ESPECIALLY DEWPOINT AND RELATIVE
    HUMIDITY OBSERVATIONS.

INZ001>003-010>013-019-020-281600-
NORTHWEST INDIANA

CITY           SKY/WX    TMP DP  RH WIND       PRES   REMARKS
GARY /AIRPORT/ PTSUNNY   70  59  68 SW6       30.17R
KNOX *+        SUNNY     70  59  68 SW6       30.17S
LA PORTE +     SUNNY     69  64  82 S5        30.18S
MICHIGAN CITY+ SUNNY     70  59  68 S6        30.17S
MONTICELLO +   SUNNY     70  61  73 S6        30.17F
RENSSELAER +   MOSUNNY   72  63  73 SW7       30.17R
VALPARAISO     MOSUNNY   68  61  78 S6        30.18R

$$

LMZ046-743>745-281600-
SOUTHERN LAKE MICHIGAN

STATION/POSITION TIME  TEMP    WIND        PRES    WAVE
                       AIR SEA DIR/SP/G            HT
                 (UTC) (F)     (DEG/KT/KT) (MB)    (FT)
BURNS HARBOR     1400   67     180/  8/ 11 1021.3S
MICHIGAN CITY    1400   65     140/  9/ 10   N/A
5NW MICH CITY    1500   68 70  210/  6/  8   N/A     1

$$

INZ004-005-014>016-021>024-281600-
NORTH CENTRAL INDIANA

CITY           SKY/WX    TMP DP  RH WIND       PRES   REMARKS
ELKHART        SUNNY     68  59  73 S5        30.19
GOSHEN         SUNNY     70  60  70 SW9       30.18F
LOGANSPORT +   SUNNY     70  54  56 S6        30.19F
PERU/GRISSOM   SUNNY     72  58  61 SW8       30.18S
ROCHESTER +    SUNNY     73  59  60 S8        30.19S
SOUTH BEND     SUNNY     68  60  75 SW8       30.18S
WARSAW +       SUNNY     70  59  68 SW6       30.19S

$$

INZ006>009-017-018-025>027-281600-
NORTHEAST INDIANA

CITY           SKY/WX    TMP DP  RH WIND       PRES   REMARKS
ANGOLA *+      MOSUNNY   68  61  77 S5        30.20S
AUBURN +       MOSUNNY   68  59  73 SW3       30.22R
FORT WAYNE     MOSUNNY   70  59  68 VRB5      30.21R
HUNTINGTON +   SUNNY     71  55  57 SW5       30.20S

$$

INZ028-029-035-036-043>045-051>053-281600-
WEST CENTRAL INDIANA

CITY           SKY/WX    TMP DP  RH WIND       PRES   REMARKS
CRAWFORDSVL +  SUNNY     70  55  58 SE5       30.18F
GREENCASTLE +  SUNNY     70  55  60 S5        30.20R
LAFAYETTE      SUNNY     72  58  61 SW6       30.17F
TERRE HAUTE    MOSUNNY   72  58  61 VRB3      30.17S

$$

INZ030>032-037>040-046>048-054>057-064-065-281600-
CENTRAL INDIANA

CITY           SKY/WX    TMP DP  RH WIND       PRES   REMARKS
ANDERSON       SUNNY     72  52  49 SW6       30.21S
COLUMBUS       SUNNY     72  52  49 CALM      30.20R
FISHERS *+     SUNNY     72  61  68 S6        30.20
FRANKFORT +    SUNNY     73  61  65 S6        30.20F
GREENWOOD *+   SUNNY     72  54  53 CALM      30.21R
INDIANAPOLIS   MOSUNNY   72  56  57 VRB3      30.18S
-EAGLE CREEK   SUNNY     72  56  57 S6        30.19R
KOKOMO *+      SUNNY     72  59  64 S8        30.20S
MARION +       PTSUNNY   71  51  49 S7        30.21S
MT COMFORT *+  SUNNY     72  52  49 S3        30.21R
SHELBYVILLE    SUNNY     72  55  55 VRB3      30.19S
ZIONSVILLE +   SUNNY     73  56  56 S5        30.21S

$$

INZ033-034-041-042-049-050-058-059-281600-
EAST CENTRAL INDIANA

CITY           SKY/WX    TMP DP  RH WIND       PRES   REMARKS
MUNCIE         PTSUNNY   69  56  62 W6        30.20S

$$

INZ060-061-067>069-081>083-085>088-281600-
SOUTHWEST INDIANA

CITY           SKY/WX    TMP DP  RH WIND       PRES   REMARKS
EVANSVILLE     SUNNY     72  60  66 E3        30.16R
HUNTINGBURG *+ SUNNY     72  61  68 E6        30.17R
WASHINGTON +   SUNNY     73  55  52 SE3       30.17R

$$

INZ062-063-066-070>080-084-089>092-281600-
SOUTH CENTRAL AND SOUTHEAST INDIANA

CITY           SKY/WX    TMP DP  RH WIND       PRES   REMARKS
BLOOMINGTON    MOSUNNY   72  57  59 SE8       30.19R
MADISON *+     SUNNY     72  55  56 SE6       30.21S
NORTH VERNON + SUNNY     72  55  56 CALM      30.20S
SEYMOUR +      SUNNY     73  57  56 SE3       30.19S

$$




USA.gov is the U.S. government's official web portal to all federal, state and local government web resources and services.